Home   Weather   Ajmān   Past weeks
Flag for United Arab Emirates

Past Weather in Ajmān, Ajman, United Arab Emirates — Yesterday and Last 2 Weeks

Now
82 °F

Sunny.


Feels Like: 84 °F
Forecast: 82 / 66 °F
Wind: 13 mph from Northwest

Location: Sharjah International Airport

Current Time: Apr 1, 2020 at 4:29:37 pm

Latest Report: Apr 1, 2020 at 4:00 pm


Visibility: 10 mi

Pressure: 29.89 "Hg

Humidity: 55%

Dew Point: 64 °F

Location of AjmānLocation

Past Weather in Ajmān — Graph

°F

Ajmān Temperature Yesterday

Maximum temperature yesterday: 81 °F (at 12:00 pm)
Minimum temperature yesterday: 66 °F (at 5:00 am)
Average temperature yesterday: 73 °F

High & Low Weather Summary for the Past Weeks

 TemperatureHumidityPressure
High93 °F (Mar 19, 2:00 pm)94% (Mar 26, 6:00 am)30.01 "Hg (Mar 26, 6:00 am)
Low61 °F (Mar 26, 6:00 am)17% (Mar 27, 2:00 pm)29.68 "Hg (Mar 22, 6:00 pm)
Average76 °F57%29.88 "Hg
* Reported Mar 17 3:00 pm — Apr 1 3:00 pm, Ajmān. Weather by CustomWeather, © 2020

Note: Actual official high and low records may vary slightly from our data, if they occured in-between our weather recording intervals... More about our weather records

Ajmān Weather History for the Previous 24 Hours

Scroll right to see more
 ConditionsComfort  
Time TempWeatherWind HumidityBarometerVisibility
3:00 pm
Wed, Apr 1
84 °FSunny.12 mph51%29.89 "Hg10 mi
2:00 pm84 °FPassing clouds.7 mph51%29.92 "HgN/A
1:00 pm86 °FSunny.2 mph35%29.95 "Hg10 mi
12:00 pm82 °FPassing clouds.3 mph45%29.98 "HgN/A
11:00 am81 °FPassing clouds.7 mph48%29.98 "HgN/A
10:00 am77 °FPassing clouds.7 mph61%30.01 "HgN/A
9:00 am73 °FSunny.7 mph69%30.01 "Hg10 mi
8:00 am70 °FSunny.8 mph73%29.98 "Hg10 mi
7:00 am66 °FSunny.5 mph83%29.95 "Hg10 mi
6:00 am66 °FClear.7 mph83%29.92 "Hg10 mi
5:00 am66 °FClear.6 mph83%29.92 "Hg10 mi
4:00 am68 °FClear.7 mph78%29.92 "Hg10 mi
3:00 am68 °FClear.6 mph78%29.92 "Hg10 mi
2:00 am70 °FClear.5 mph73%29.92 "Hg10 mi
1:00 am70 °FClear.6 mph73%29.95 "Hg10 mi
12:00 am70 °FClear.7 mph73%29.95 "Hg10 mi
11:00 pm
Tue, Mar 31
72 °FClear.6 mph69%29.95 "Hg10 mi
10:00 pm73 °FClear.3 mph65%29.95 "Hg10 mi
9:00 pm73 °FClear.6 mph65%29.95 "Hg10 mi
8:00 pm75 °FClear.8 mph61%29.95 "Hg10 mi
7:00 pm75 °FClear.10 mph61%29.92 "Hg10 mi
6:00 pm77 °FSunny.12 mph54%29.92 "Hg10 mi
5:00 pm77 °FSunny.16 mph54%29.92 "Hg10 mi
4:00 pm79 °FSunny.17 mph51%29.92 "Hg10 mi
Weather by CustomWeather, © 2020

See weather overview

Advertising